Zurück zum Katalog

THORAD AGENA D DEB

AktivSSO
NORAD 5153·DEBRIS·🇺🇸 United States

Gestartet Apr 8, 1970 von Vandenberg Space Force Base

Loading…

Nächste Überflüge (nächste 24 Stunden)

TLE

AktuellSource: Space-Track

Epoche: Sep 13, 2026, 07:26 UTC

1 05153U 70025JW  26256.31006789  .00000263  00000-0  42614-3 0  9994
2 05153  99.9843  12.7197 0032959  33.6578  25.4447 13.58186731781178

Verfolge THORAD AGENA D DEB in Echtzeit mit AllMySat

Download on the App Store